| time (UTC) | temp C | wind direction | speed KPH | gust KPH | rain 1hr cm | rain 24hr cm | rain mn cm | humidity % | barometer mb |
| 20260504014957 | 8 | 310 | 0.0 | 1.6 | 0.00 | 0.00 | 0.00 | 74 | 1019.5 |
| 20260504014453 | 8 | 141 | 0.0 | 1.6 | 0.00 | 0.00 | 0.00 | 73 | 1019.6 |
| 20260504013950 | 8 | 114 | 0.0 | 1.6 | 0.00 | 0.00 | 0.00 | 71 | 1019.7 |
| 20260504013449 | 8 | 113 | 0.0 | 0.0 | 0.00 | 0.00 | 0.00 | 71 | 1019.7 |
| 20260504012944 | 8 | 135 | 0.0 | 1.6 | 0.00 | 0.00 | 0.00 | 70 | 1019.6 |
| 20260504012443 | 9 | 119 | 0.0 | 1.6 | 0.00 | 0.00 | 0.00 | 69 | 1019.6 |
| 20260504011940 | 9 | 186 | 0.0 | 0.0 | 0.00 | 0.00 | 0.00 | 68 | 1019.6 |
| 20260504011436 | 9 | 235 | 0.0 | 0.0 | 0.00 | 0.00 | 0.00 | 70 | 1019.5 |
| 20260504010932 | 10 | 202 | 0.0 | 1.6 | 0.00 | 0.00 | 0.00 | 64 | 1019.4 |
| 20260504010429 | 10 | 229 | 0.0 | 0.0 | 0.00 | 0.00 | 0.00 | 66 | 1019.6 |
| 20260504005925 | 10 | 173 | 0.0 | 0.0 | 0.00 | 0.00 | 0.00 | 65 | 1019.7 |
| 20260504005422 | 10 | 212 | 0.0 | 0.0 | 0.00 | 0.00 | 0.00 | 62 | 1019.6 |
| 20260504004919 | 10 | 246 | 0.0 | 1.6 | 0.00 | 0.00 | 0.00 | 62 | 1019.6 |
| 20260504004417 | 11 | 238 | 0.0 | 1.6 | 0.00 | 0.00 | 0.00 | 57 | 1019.4 |
| 20260504003914 | 11 | 211 | 0.0 | 1.6 | 0.00 | 0.00 | 0.00 | 55 | 1019.6 |
| 20260504003410 | 11 | 208 | 0.0 | 1.6 | 0.00 | 0.00 | 0.00 | 54 | 1019.7 |
| 20260504002907 | 11 | 182 | 0.0 | 3.2 | 0.00 | 0.00 | 0.00 | 53 | 1019.9 |
| 20260504002404 | 12 | 207 | 1.6 | 3.2 | 0.00 | 0.00 | 0.00 | 53 | 1019.7 |
| 20260504001901 | 12 | 218 | 1.6 | 1.6 | 0.00 | 0.00 | 0.00 | 52 | 1020.2 |
| 20260504001359 | 12 | 229 | 0.0 | 0.0 | 0.00 | 0.00 | 0.00 | 53 | 1019.9 |
| 20260504000855 | 12 | 246 | 0.0 | 1.6 | 0.00 | 0.00 | 0.00 | 51 | 1020.2 |
| 20260504000354 | 12 | 247 | 1.6 | 3.2 | 0.00 | 0.00 | 0.00 | 49 | 1020.0 |
| 20260503235849 | 13 | 238 | 1.6 | 3.2 | 0.00 | 0.00 | 0.00 | 48 | 1020.3 |
| 20260503235347 | 13 | 241 | 0.0 | 3.2 | 0.00 | 0.00 | 0.00 | 47 | 1020.2 |
| 20260503234844 | 13 | 222 | 0.0 | 1.6 | 0.00 | 0.00 | 0.00 | 47 | 1020.2 |
| 20260503234342 | 13 | 230 | 1.6 | 3.2 | 0.00 | 0.00 | 0.00 | 46 | 1020.2 |
| 20260503233839 | 14 | 245 | 3.2 | 3.2 | 0.00 | 0.00 | 0.00 | 45 | 1020.3 |
| 20260503233335 | 14 | 29 | 0.0 | 3.2 | 0.00 | 0.00 | 0.00 | 43 | 1019.9 |
| 20260503232826 | 14 | 217 | 3.2 | 3.2 | 0.00 | 0.00 | 0.00 | 41 | 1019.8 |
| 20260503232324 | 14 | 178 | 0.0 | 3.2 | 0.00 | 0.00 | 0.00 | 43 | 1020.0 |
| 20260503231822 | 15 | 199 | 0.0 | 4.8 | 0.00 | 0.00 | 0.00 | 43 | 1019.8 |
| 20260503231318 | 15 | 264 | 1.6 | 3.2 | 0.00 | 0.00 | 0.00 | 40 | 1020.2 |
| 20260503230814 | 15 | 265 | 3.2 | 3.2 | 0.00 | 0.00 | 0.00 | 43 | 1019.9 |
| 20260503230311 | 15 | 283 | 3.2 | 3.2 | 0.00 | 0.00 | 0.00 | 41 | 1020.0 |
| 20260503225809 | 15 | 160 | 1.6 | 3.2 | 0.00 | 0.00 | 0.00 | 38 | 1020.5 |
| 20260503225305 | 15 | 305 | 3.2 | 6.4 | 0.00 | 0.00 | 0.00 | 38 | 1020.5 |
| 20260503224801 | 16 | 283 | 0.0 | 1.6 | 0.00 | 0.00 | 0.00 | 39 | 1020.5 |
| 20260503224259 | 16 | 280 | 1.6 | 4.8 | 0.00 | 0.00 | 0.00 | 39 | 1020.7 |
| 20260503223756 | 16 | 333 | 1.6 | 4.8 | 0.00 | 0.00 | 0.00 | 39 | 1020.7 |
| 20260503223254 | 16 | 185 | 0.0 | 4.8 | 0.00 | 0.00 | 0.00 | 40 | 1020.6 |
| 20260503222749 | 16 | 278 | 1.6 | 4.8 | 0.00 | 0.00 | 0.00 | 41 | 1020.6 |
| 20260503222248 | 16 | 19 | 0.0 | 3.2 | 0.00 | 0.00 | 0.00 | 42 | 1020.6 |
| 20260503221746 | 16 | 236 | 4.8 | 9.7 | 0.00 | 0.00 | 0.00 | 42 | 1020.7 |
| 20260503221243 | 16 | 46 | 4.8 | 4.8 | 0.00 | 0.00 | 0.00 | 42 | 1020.8 |
| 20260503220740 | 16 | 290 | 3.2 | 6.4 | 0.00 | 0.00 | 0.00 | 42 | 1020.8 |
| 20260503220237 | 16 | 25 | 0.0 | 9.7 | 0.00 | 0.00 | 0.00 | 40 | 1020.8 |
| 20260503215733 | 16 | 213 | 3.2 | 6.4 | 0.00 | 0.00 | 0.00 | 39 | 1020.9 |
| 20260503215230 | 16 | 148 | 3.2 | 3.2 | 0.00 | 0.00 | 0.00 | 40 | 1020.9 |
| 20260503214729 | 16 | 319 | 0.0 | 8.0 | 0.00 | 0.00 | 0.00 | 41 | 1021.1 |
| 20260503214225 | 17 | 236 | 6.4 | 8.0 | 0.00 | 0.00 | 0.00 | 37 | 1020.9 |
| 20260503213723 | 18 | 249 | 3.2 | 6.4 | 0.00 | 0.00 | 0.00 | 37 | 1021.0 |
| 20260503213220 | 18 | 334 | 0.0 | 6.4 | 0.00 | 0.00 | 0.00 | 37 | 1021.2 |
| 20260503212717 | 17 | 300 | 3.2 | 8.0 | 0.00 | 0.00 | 0.00 | 37 | 1021.3 |
| 20260503212215 | 17 | 233 | 4.8 | 4.8 | 0.00 | 0.00 | 0.00 | 37 | 1021.3 |
| 20260503211712 | 17 | 306 | 3.2 | 6.4 | 0.00 | 0.00 | 0.00 | 39 | 1021.3 |
| 20260503211208 | 17 | 201 | 4.8 | 6.4 | 0.00 | 0.00 | 0.00 | 37 | 1021.2 |
| 20260503210704 | 17 | 252 | 3.2 | 6.4 | 0.00 | 0.00 | 0.00 | 38 | 1021.2 |
| 20260503210201 | 17 | 256 | 1.6 | 6.4 | 0.00 | 0.00 | 0.00 | 38 | 1021.5 |
| 20260503205656 | 17 | 233 | 3.2 | 6.4 | 0.00 | 0.00 | 0.00 | 38 | 1021.6 |
| 20260503205153 | 17 | 63 | 6.4 | 6.4 | 0.00 | 0.00 | 0.00 | 38 | 1021.3 |
| 20260503204649 | 17 | 53 | 1.6 | 8.0 | 0.00 | 0.00 | 0.00 | 38 | 1021.5 |
| 20260503204147 | 17 | 167 | 4.8 | 6.4 | 0.00 | 0.00 | 0.00 | 39 | 1021.7 |
| 20260503203644 | 17 | 201 | 3.2 | 9.7 | 0.00 | 0.00 | 0.00 | 36 | 1021.8 |
| 20260503203142 | 17 | 149 | 4.8 | 8.0 | 0.00 | 0.00 | 0.00 | 36 | 1022.2 |
| 20260503202638 | 17 | 263 | 4.8 | 6.4 | 0.00 | 0.00 | 0.00 | 39 | 1021.7 |
| 20260503202137 | 17 | 320 | 1.6 | 6.4 | 0.00 | 0.00 | 0.00 | 39 | 1021.8 |
| 20260503201634 | 17 | 295 | 4.8 | 6.4 | 0.00 | 0.00 | 0.00 | 41 | 1022.2 |
| 20260503201131 | 17 | 75 | 1.6 | 6.4 | 0.00 | 0.00 | 0.00 | 37 | 1021.8 |
| 20260503200622 | 18 | 19 | 0.0 | 3.2 | 0.00 | 0.00 | 0.00 | 37 | 1022.1 |
| 20260503200118 | 17 | 298 | 0.0 | 6.4 | 0.00 | 0.00 | 0.00 | 36 | 1022.1 |
| 20260503195616 | 17 | 281 | 3.2 | 6.4 | 0.00 | 0.00 | 0.00 | 37 | 1022.3 |
| 20260503195112 | 17 | 277 | 3.2 | 4.8 | 0.00 | 0.00 | 0.00 | 38 | 1022.5 |
| 20260503194609 | 17 | 8 | 1.6 | 6.4 | 0.00 | 0.00 | 0.00 | 39 | 1022.5 |
| 20260503194104 | 17 | 263 | 4.8 | 6.4 | 0.00 | 0.00 | 0.00 | 37 | 1022.9 |
| 20260503193601 | 16 | 305 | 3.2 | 8.0 | 0.00 | 0.00 | 0.00 | 36 | 1022.6 |
| 20260503193056 | 16 | 147 | 4.8 | 6.4 | 0.00 | 0.00 | 0.00 | 38 | 1022.6 |
| 20260503192553 | 16 | 85 | 4.8 | 6.4 | 0.00 | 0.00 | 0.00 | 41 | 1022.6 |
| 20260503192048 | 16 | 150 | 4.8 | 4.8 | 0.00 | 0.00 | 0.00 | 40 | 1022.7 |
| 20260503191540 | 16 | 219 | 4.8 | 9.7 | 0.00 | 0.00 | 0.00 | 40 | 1022.7 |
| 20260503191037 | 16 | 97 | 4.8 | 9.7 | 0.00 | 0.00 | 0.00 | 38 | 1022.9 |
| 20260503190533 | 16 | 313 | 0.0 | 4.8 | 0.00 | 0.00 | 0.00 | 42 | 1022.9 |
| 20260503190030 | 16 | 130 | 1.6 | 6.4 | 0.00 | 0.00 | 0.00 | 41 | 1023.0 |
| 20260503185526 | 16 | 223 | 3.2 | 8.0 | 0.00 | 0.00 | 0.00 | 41 | 1023.1 |
| 20260503185021 | 16 | 50 | 1.6 | 4.8 | 0.00 | 0.00 | 0.00 | 39 | 1023.0 |
| 20260503184518 | 16 | 180 | 3.2 | 9.7 | 0.00 | 0.00 | 0.00 | 44 | 1023.1 |
| 20260503184014 | 15 | 15 | 4.8 | 6.4 | 0.00 | 0.00 | 0.00 | 42 | 1023.2 |
| 20260503183511 | 15 | 136 | 3.2 | 9.7 | 0.00 | 0.00 | 0.00 | 45 | 1023.4 |
| 20260503183008 | 15 | 266 | 3.2 | 6.4 | 0.00 | 0.00 | 0.00 | 43 | 1023.2 |
| 20260503182507 | 15 | 199 | 3.2 | 6.4 | 0.00 | 0.00 | 0.00 | 42 | 1023.3 |
| 20260503182005 | 15 | 93 | 3.2 | 4.8 | 0.00 | 0.00 | 0.00 | 46 | 1023.5 |
| 20260503181501 | 15 | 171 | 3.2 | 6.4 | 0.00 | 0.00 | 0.00 | 46 | 1023.2 |
| 20260503180956 | 15 | 254 | 4.8 | 4.8 | 0.00 | 0.00 | 0.00 | 48 | 1023.4 |
| 20260503180455 | 15 | 218 | 4.8 | 8.0 | 0.00 | 0.00 | 0.00 | 45 | 1023.4 |
| 20260503175951 | 15 | 4 | 1.6 | 6.4 | 0.00 | 0.00 | 0.00 | 46 | 1023.5 |
| 20260503175449 | 15 | 216 | 1.6 | 4.8 | 0.00 | 0.00 | 0.00 | 46 | 1023.6 |
| 20260503174945 | 14 | 202 | 0.0 | 6.4 | 0.00 | 0.00 | 0.00 | 48 | 1023.6 |
| 20260503174443 | 15 | 10 | 4.8 | 9.7 | 0.00 | 0.00 | 0.00 | 46 | 1023.7 |
| 20260503173938 | 14 | 203 | 3.2 | 11.3 | 0.00 | 0.00 | 0.00 | 50 | 1023.6 |
| 20260503173434 | 15 | 195 | 3.2 | 6.4 | 0.00 | 0.00 | 0.00 | 52 | 1023.6 |
| 20260503172931 | 13 | 248 | 8.0 | 14.5 | 0.00 | 0.00 | 0.00 | 54 | 1024.0 |
| 20260503172429 | 14 | 291 | 1.6 | 9.7 | 0.00 | 0.00 | 0.00 | 50 | 1023.8 |
| 20260503171925 | 15 | 64 | 6.4 | 6.4 | 0.00 | 0.00 | 0.00 | 48 | 1024.0 |
| 20260503171422 | 14 | 163 | 3.2 | 6.4 | 0.00 | 0.00 | 0.00 | 48 | 1024.1 |
| 20260503170919 | 13 | 226 | 3.2 | 4.8 | 0.00 | 0.00 | 0.00 | 52 | 1024.1 |
| 20260503170415 | 13 | 156 | 4.8 | 6.4 | 0.00 | 0.00 | 0.00 | 50 | 1024.3 |
| 20260503150808 | 12 | 147 | 3.2 | 3.2 | 0.00 | 0.00 | 0.00 | 57 | 1025.0 |
| 20260503150303 | 11 | 255 | 4.8 | 4.8 | 0.00 | 0.00 | 0.00 | 54 | 1024.9 |
| 20260503140228 | 11 | 215 | 0.0 | 3.2 | 0.00 | 0.00 | 0.00 | 63 | 1024.8 |
| 20260503131158 | 7 | 160 | 0.0 | 4.8 | 0.00 | 0.00 | 0.00 | 82 | 1024.6 |
| 20260503130655 | 6 | 343 | 0.0 | 1.6 | 0.00 | 0.00 | 0.00 | 88 | 1024.7 |
| 20260503130152 | 6 | 208 | 3.2 | 4.8 | 0.00 | 0.00 | 0.00 | 90 | 1024.6 |
| 20260503120118 | 1 | 257 | 0.0 | 3.2 | 0.00 | 0.00 | 0.00 | 99 | 1024.3 |
| 20260503110539 | 0 | 106 | 0.0 | 3.2 | 0.00 | 0.00 | 0.00 | 99 | 1023.4 |
| 20260503090426 | 2 | 255 | 0.0 | 3.2 | 0.00 | 0.00 | 0.00 | 99 | 1022.6 |
| 20260503081353 | 2 | 242 | 0.0 | 3.2 | 0.00 | 0.00 | 0.00 | 98 | 1022.6 |
| 20260503080849 | 2 | 89 | 1.6 | 3.2 | 0.00 | 0.00 | 0.00 | 98 | 1022.4 |
| 20260503080347 | 1 | 111 | 0.0 | 1.6 | 0.00 | 0.00 | 0.00 | 98 | 1022.5 |
| 20260503072823 | 1 | 168 | 0.0 | 3.2 | 0.00 | 0.00 | 0.00 | 97 | 1022.4 |
| 20260503072320 | 2 | 120 | 0.0 | 3.2 | 0.00 | 0.00 | 0.00 | 98 | 1022.2 |
| 20260503071816 | 2 | 287 | 0.0 | 3.2 | 0.00 | 0.00 | 0.00 | 97 | 1022.4 |
| 20260503071314 | 2 | 181 | 0.0 | 3.2 | 0.00 | 0.00 | 0.00 | 97 | 1022.1 |
| 20260503070809 | 2 | 121 | 0.0 | 1.6 | 0.00 | 0.00 | 0.00 | 97 | 1022.3 |
| 20260503070302 | 2 | 135 | 0.0 | 3.2 | 0.00 | 0.00 | 0.00 | 97 | 1022.1 |
| 20260503060221 | 3 | 145 | 0.0 | 3.2 | 0.00 | 0.00 | 0.00 | 97 | 1022.5 |
| 20260503054708 | 3 | 114 | 0.0 | 1.6 | 0.00 | 0.00 | 0.00 | 96 | 1022.1 |
| 20260503054205 | 3 | 131 | 0.0 | 3.2 | 0.00 | 0.00 | 0.00 | 96 | 1022.4 |
| 20260503053703 | 3 | 117 | 0.0 | 3.2 | 0.00 | 0.00 | 0.00 | 97 | 1022.4 |
| 20260503053201 | 3 | 102 | 0.0 | 3.2 | 0.00 | 0.00 | 0.00 | 96 | 1022.1 |
| 20260503052657 | 3 | 147 | 0.0 | 3.2 | 0.00 | 0.00 | 0.00 | 96 | 1022.5 |
| 20260503052154 | 3 | 113 | 0.0 | 3.2 | 0.00 | 0.00 | 0.00 | 96 | 1021.9 |
| 20260503051649 | 3 | 180 | 0.0 | 3.2 | 0.00 | 0.00 | 0.00 | 96 | 1022.2 |
| 20260503051147 | 3 | 161 | 1.6 | 3.2 | 0.00 | 0.00 | 0.00 | 96 | 1021.8 |
| 20260503050643 | 4 | 124 | 1.6 | 3.2 | 0.00 | 0.00 | 0.00 | 96 | 1021.9 |
| 20260503050140 | 4 | 124 | 0.0 | 1.6 | 0.00 | 0.00 | 0.00 | 96 | 1021.9 |
| 20260503045638 | 4 | 81 | 0.0 | 4.8 | 0.00 | 0.08 | 0.08 | 96 | 1021.9 |
| 20260503045135 | 4 | 150 | 0.0 | 3.2 | 0.00 | 0.08 | 0.08 | 96 | 1021.7 |
| 20260503044631 | 4 | 214 | 3.2 | 3.2 | 0.00 | 0.08 | 0.08 | 96 | 1021.8 |
| 20260503044129 | 4 | 232 | 0.0 | 3.2 | 0.00 | 0.08 | 0.08 | 96 | 1021.8 |
| 20260503043625 | 4 | 114 | 1.6 | 4.8 | 0.00 | 0.08 | 0.08 | 96 | 1021.6 |
| 20260503043122 | 5 | 194 | 0.0 | 3.2 | 0.00 | 0.08 | 0.08 | 96 | 1021.7 |
| 20260503042619 | 5 | 165 | 0.0 | 3.2 | 0.00 | 0.08 | 0.08 | 96 | 1021.5 |
| 20260503042115 | 5 | 166 | 1.6 | 3.2 | 0.00 | 0.08 | 0.08 | 96 | 1021.7 |
| 20260503041612 | 5 | 328 | 3.2 | 3.2 | 0.00 | 0.08 | 0.08 | 96 | 1021.4 |
| 20260503041110 | 5 | 202 | 0.0 | 3.2 | 0.00 | 0.08 | 0.08 | 96 | 1021.7 |
| 20260503040607 | 5 | 235 | 0.0 | 0.0 | 0.00 | 0.08 | 0.08 | 96 | 1021.6 |
| 20260503040104 | 5 | 212 | 0.0 | 0.0 | 0.00 | 0.08 | 0.08 | 96 | 1021.6 |
| 20260503035600 | 5 | 147 | 0.0 | 3.2 | 0.00 | 0.08 | 0.08 | 96 | 1021.5 |
| 20260503035058 | 5 | 154 | 0.0 | 1.6 | 0.00 | 0.08 | 0.08 | 96 | 1021.3 |
| 20260503034555 | 5 | 149 | 0.0 | 3.2 | 0.00 | 0.08 | 0.08 | 96 | 1021.3 |
| 20260503034052 | 5 | 162 | 0.0 | 1.6 | 0.00 | 0.08 | 0.08 | 95 | 1021.5 |
| 20260503033549 | 6 | 224 | 0.0 | 1.6 | 0.00 | 0.08 | 0.08 | 96 | 1021.4 |
| 20260503033047 | 6 | 173 | 0.0 | 0.0 | 0.00 | 0.08 | 0.08 | 95 | 1021.2 |
| 20260503032545 | 6 | 128 | 0.0 | 1.6 | 0.00 | 0.08 | 0.08 | 96 | 1021.5 |
| 20260503032043 | 6 | 214 | 0.0 | 0.0 | 0.00 | 0.08 | 0.08 | 96 | 1021.5 |
| 20260503031541 | 6 | 124 | 0.0 | 1.6 | 0.00 | 0.08 | 0.08 | 96 | 1021.6 |
| 20260503031038 | 6 | 162 | 1.6 | 3.2 | 0.00 | 0.08 | 0.08 | 96 | 1021.4 |
| 20260503030533 | 6 | 237 | 0.0 | 0.0 | 0.00 | 0.08 | 0.08 | 96 | 1021.7 |
| 20260503030031 | 6 | 119 | 0.0 | 1.6 | 0.00 | 0.08 | 0.08 | 96 | 1021.6 |
| 20260503025527 | 6 | 235 | 0.0 | 1.6 | 0.00 | 0.08 | 0.08 | 95 | 1021.5 |
| 20260503025026 | 6 | 157 | 0.0 | 3.2 | 0.00 | 0.08 | 0.08 | 95 | 1021.5 |
| 20260503024521 | 6 | 124 | 0.0 | 4.8 | 0.00 | 0.08 | 0.08 | 95 | 1021.4 |
| 20260503024019 | 6 | 122 | 0.0 | 1.6 | 0.00 | 0.08 | 0.08 | 95 | 1021.2 |
| 20260503023515 | 6 | 154 | 0.0 | 3.2 | 0.00 | 0.08 | 0.08 | 95 | 1021.4 |
| 20260503023013 | 6 | 147 | 0.0 | 0.0 | 0.00 | 0.08 | 0.08 | 95 | 1021.2 |
| 20260503022509 | 6 | 131 | 3.2 | 3.2 | 0.00 | 0.08 | 0.08 | 95 | 1021.0 |
| 20260503022003 | 6 | 114 | 0.0 | 1.6 | 0.00 | 0.08 | 0.08 | 94 | 1021.1 |
| 20260503021500 | 6 | 246 | 0.0 | 0.0 | 0.00 | 0.08 | 0.08 | 94 | 1021.2 |
| 20260503020957 | 6 | 110 | 0.0 | 1.6 | 0.00 | 0.08 | 0.08 | 94 | 1021.1 |
| 20260503020455 | 6 | 145 | 0.0 | 3.2 | 0.00 | 0.08 | 0.08 | 93 | 1021.1 |
| 20260503015951 | 7 | 132 | 0.0 | 3.2 | 0.00 | 0.08 | 0.08 | 93 | 1020.9 |
| 20260503015448 | 7 | 135 | 0.0 | 0.0 | 0.00 | 0.08 | 0.08 | 93 | 1021.1 |